Theta_e
308 306 305 305 305 305 306 306 307 308 308 308 308 308 308 309 310 309 309 308 308 308 308 307 307 308 307 307 307 306 304 304 304 304 304 303 302 299 295 293 293 293 291 292 292 291 291 292 292 294 294 294 294 294 294 293 294 294 293 293 292 292
309 307 305 304 304 304 305 306 306 306 307 307 308 308 309 309 309 308 307 308 307 307 307 307 307 307 306 306 305 303 303 304 303 302 301 301 300 297 295 293 292 291 290 290 290 290 291 291 291 292 293 293 294 294 294 293 293 292 291 290 290 290
308 306 305 305 304 304 304 305 305 306 307 307 307 307 308 308 308 308 307 307 306 306 305 306 306 304 304 303 303 302 302 302 300 300 299 297 296 296 294 292 291 290 290 289 289 289 290 290 290 291 291 292 292 293 292 291 292 291 289 288 288 289
306 305 304 303 303 302 302 303 304 305 305 306 307 307 308 307 307 307 307 306 306 305 305 305 305 304 302 302 301 301 300 300 299 298 296 295 295 294 292 291 291 290 289 289 289 289 289 289 289 290 290 291 291 291 291 290 290 289 287 287 286 286
306 304 303 302 302 302 302 302 302 303 304 305 306 306 306 307 308 308 307 306 305 304 304 304 303 301 301 301 300 300 299 298 296 295 295 294 293 292 292 292 290 289 289 288 288 288 288 288 288 289 289 290 289 289 289 290 289 288 286 286 285 286
304 302 301 301 301 301 301 301 302 303 303 304 305 305 305 306 307 307 306 305 304 304 303 303 303 300 300 300 301 301 299 297 294 293 293 293 291 290 291 291 290 289 288 287 287 287 287 287 287 288 288 289 289 289 288 288 288 288 287 286 285 284
302 302 303 302 302 301 301 301 301 302 302 303 303 304 305 305 306 305 305 304 303 303 302 302 301 299 298 298 298 299 298 297 294 292 292 292 290 290 290 289 289 288 287 286 286 286 286 287 287 287 287 288 288 288 288 288 287 287 286 285 284 285
305 304 303 303 302 302 301 301 301 301 302 302 303 303 303 304 304 304 303 303 302 302 301 301 300 298 297 296 295 295 295 295 294 292 291 291 290 290 290 288 288 288 286 286 286 286 286 286 286 286 287 287 287 287 287 287 287 286 285 284 284 284
306 305 304 303 302 302 302 302 301 301 301 301 301 302 302 303 303 303 302 302 302 301 300 300 299 297 297 296 295 295 294 294 293 291 290 290 289 289 288 287 287 287 287 286 286 286 285 285 285 286 286 286 286 286 286 286 285 285 284 284 284 283
306 305 304 303 302 302 302 302 302 301 300 300 300 300 301 302 302 301 301 301 301 300 299 299 299 297 297 296 295 294 294 293 290 289 289 289 289 288 287 287 286 287 286 286 286 286 285 285 285 285 285 285 286 285 285 285 284 283 283 283 283 283
306 306 306 305 303 302 301 300 300 300 300 300 299 299 300 301 301 300 300 300 299 300 300 299 298 297 296 295 294 294 294 292 289 288 288 288 288 288 287 287 286 286 285 285 285 285 285 285 285 285 284 284 284 285 284 284 284 283 282 282 281 282
307 307 307 306 304 302 301 300 299 299 298 298 299 299 299 300 299 299 298 298 298 299 299 299 297 296 294 294 293 293 294 292 289 288 287 286 287 286 286 285 285 285 285 285 284 284 285 284 285 285 286 287 284 284 285 284 283 282 282 281 280 280
309 308 307 306 306 305 303 302 301 300 298 298 298 298 298 299 298 298 298 297 298 298 298 298 296 294 293 293 293 293 293 290 287 287 286 286 286 285 285 284 284 283 283 283 283 283 284 284 284 286 288 288 288 285 284 283 283 283 282 281 281 279
309 308 307 306 306 305 304 303 302 299 298 298 297 298 298 297 297 297 297 297 297 297 297 296 294 293 292 292 292 292 290 288 287 286 285 285 285 285 285 284 283 283 283 284 283 283 283 283 285 288 288 289 289 287 284 284 283 283 282 281 281 280
308 309 309 308 307 305 305 304 301 299 299 298 297 297 296 296 296 296 296 296 296 296 296 295 293 292 291 291 289 289 288 287 286 286 285 284 285 284 284 283 283 283 283 283 283 282 282 282 285 288 289 289 289 288 286 284 284 283 282 281 281 280
309 310 310 309 308 307 306 303 302 300 299 298 297 296 295 295 295 295 295 295 295 295 295 294 290 290 290 289 288 288 287 286 285 285 285 285 284 284 283 284 283 283 282 282 282 282 282 282 285 287 288 289 289 289 287 284 283 283 282 281 281 280
308 309 308 308 307 304 301 300 299 299 297 296 295 295 294 294 294 293 294 293 294 294 293 291 290 289 289 288 287 286 286 285 285 285 285 284 284 283 283 283 283 283 283 283 283 283 282 281 286 287 288 289 288 288 286 284 284 283 282 281 280 280
308 308 309 306 302 299 299 298 298 296 295 295 294 293 293 293 292 292 293 292 293 292 292 290 289 288 288 287 286 286 285 285 285 285 284 284 284 284 284 284 283 283 283 283 283 282 282 283 286 287 287 288 288 287 284 283 283 282 281 280 279 279
308 307 304 300 299 297 297 297 295 295 293 292 293 292 291 291 291 291 291 291 291 291 291 290 289 288 287 286 285 285 285 284 284 284 285 283 283 283 283 283 283 283 283 283 283 282 282 283 286 287 287 287 287 285 283 283 282 282 280 279 279 279
297 297 299 296 295 296 295 294 293 293 291 291 290 290 290 290 290 291 291 290 291 290 290 289 288 287 286 286 285 285 285 285 285 284 284 284 283 282 282 283 283 283 283 283 283 283 282 282 285 287 288 287 286 285 283 282 282 281 281 280 279 279
298 294 294 295 293 292 293 292 291 291 290 289 289 289 289 289 290 290 290 290 290 290 289 288 288 287 286 285 285 285 284 284 284 284 284 284 284 283 283 283 283 283 283 283 283 283 282 283 285 287 288 287 287 284 283 283 282 280 280 280 280 280
292 292 292 292 293 290 290 290 290 289 289 289 289 288 288 289 289 290 290 290 289 289 288 287 286 286 285 285 285 285 285 285 284 284 284 283 283 283 282 282 282 281 282 282 282 282 282 282 284 286 287 287 286 285 284 284 282 281 281 281 282 281
294 293 292 292 290 289 290 290 289 288 289 288 288 287 288 289 290 289 289 289 288 287 287 287 286 285 285 285 285 285 285 284 284 283 283 282 282 282 281 281 281 281 281 281 281 281 281 282 284 285 287 288 287 286 285 284 284 284 284 283 284 284
290 289 288 288 289 289 289 288 288 288 288 287 287 288 289 289 289 288 288 286 286 286 286 285 285 285 285 285 285 284 283 284 284 283 283 282 281 281 280 280 280 280 280 280 281 280 280 282 284 285 287 288 287 287 286 285 285 285 285 284 284 284
288 288 287 287 287 288 288 287 286 286 286 286 287 287 287 287 287 286 286 286 285 285 285 285 284 284 284 284 284 283 282 283 283 283 282 281 281 281 280 280 280 280 279 279 279 280 280 281 283 285 285 287 287 287 287 286 285 286 285 284 283 284
288 287 286 286 287 287 287 286 285 285 286 285 286 286 286 286 286 285 285 284 284 284 284 284 284 284 284 284 283 282 281 282 282 282 282 281 281 280 279 279 280 279 278 278 278 278 278 279 280 282 284 285 287 287 287 287 286 286 284 284 283 283
286 286 285 285 285 286 285 286 285 285 284 284 285 285 285 284 284 284 283 283 283 283 283 283 283 283 283 283 283 282 282 282 282 281 282 281 281 280 279 279 279 278 278 278 277 278 278 279 279 280 282 283 284 286 286 287 287 286 286 284 284 284
286 285 284 284 285 285 285 285 285 284 283 284 284 284 284 283 282 282 282 282 282 282 283 282 282 283 283 283 284 283 282 281 281 281 281 281 280 280 279 279 279 279 278 278 278 278 277 277 277 277 279 281 281 282 284 285 285 285 284 283 281 281
285 284 284 283 284 284 284 284 285 284 284 283 283 283 283 282 282 282 282 282 282 282 282 282 282 282 283 283 283 283 282 282 282 281 281 281 280 280 279 279 279 279 279 279 279 278 277 277 277 277 277 279 279 280 280 281 281 281 281 280 280 279
284 284 283 282 282 283 283 283 283 283 283 283 283 283 283 282 282 282 282 282 282 282 283 282 280 282 282 282 282 282 281 282 282 281 281 281 280 280 279 279 279 280 280 280 280 279 278 277 277 277 277 277 278 278 279 278 278 278 278 278 276 276
284 283 282 280 281 281 281 282 282 283 283 283 283 282 282 282 281 281 281 282 282 282 282 282 282 283 282 282 281 281 282 282 282 282 280 281 283 283 282 281 281 281 282 281 279 278 278 277 276 276 278 277 278 277 275 275 275 276 276 277 277 274
283 281 279 279 279 279 279 279 280 282 282 282 283 283 282 281 281 281 281 281 281 281 281 281 281 281 280 280 278 278 278 279 282 282 281 279 280 281 283 283 281 281 281 279 279 279 278 277 278 280 280 279 279 279 278 278 278 278 277 278 279 277
279 278 277 277 278 278 278 278 278 280 281 282 282 282 281 281 280 280 280 280 280 280 281 280 280 280 280 280 279 278 277 278 279 281 281 281 280 281 281 281 282 282 281 278 276 279 281 281 281 280 280 279 279 279 279 279 279 280 280 280 278 277
278 277 276 276 276 276 276 276 277 278 279 281 281 281 281 281 280 280 280 280 280 280 280 280 279 279 279 279 279 278 278 277 277 277 280 281 280 281 281 280 280 281 281 280 279 278 278 280 280 280 280 279 280 279 280 280 280 280 280 280 280 276
279 277 276 275 275 275 275 275 274 274 276 278 280 280 281 281 281 280 280 279 279 279 278 278 278 278 278 278 278 278 278 277 277 276 276 278 281 281 280 280 280 281 281 281 280 280 279 279 280 280 280 280 280 280 280 280 280 280 280 280 278 276
277 276 275 275 274 274 274 273 272 271 272 274 278 280 280 280 280 280 279 278 278 278 277 277 278 278 277 277 278 278 278 277 277 277 276 275 276 277 279 280 280 280 280 280 280 280 280 280 280 280 280 280 280 280 280 279 277 279 279 278 275 274
276 275 274 273 274 274 273 271 269 268 268 272 278 279 278 278 277 277 274 273 274 277 277 277 277 276 276 277 277 277 277 277 277 277 276 276 275 275 275 275 277 279 280 279 280 280 281 280 280 280 280 280 279 279 278 278 275 273 272 271 270 270
275 274 273 273 273 272 270 268 267 267 268 272 276 277 276 276 275 275 275 275 275 276 277 277 276 277 276 276 277 277 276 276 276 276 276 276 274 273 272 271 272 275 279 280 279 279 279 278 278 277 277 277 277 277 277 272 271 270 269 268 267 267
Wind_Speed
6 7 7 7 7 8 8 8 9 9 9 10 11 12 12 12 11 11 10 11 9 9 11 12 13 13 9 8 8 7 7 8 7 8 8 6 7 7 7 7 7 7 7 7 5 7 8 6 7 8 7 6 6 6 6 6 7 7 6 5 6 6
6 6 6 7 7 7 7 8 8 9 10 10 10 10 10 11 12 11 12 11 10 9 10 11 11 10 10 9 8 7 10 9 7 7 7 7 7 7 7 8 8 8 9 8 9 8 8 8 6 6 7 8 7 7 7 7 8 8 7 6 5 5
5 5 5 5 5 5 6 7 8 8 8 10 11 11 12 12 12 11 10 9 10 10 11 10 10 9 8 8 7 8 9 8 8 7 6 6 5 6 8 8 9 9 9 9 10 9 9 9 9 8 7 8 8 7 7 8 9 9 7 8 8 6
5 5 4 4 5 6 7 7 7 9 10 9 10 10 10 11 12 12 11 10 9 10 10 9 7 8 8 10 8 8 7 7 8 7 5 7 5 7 7 8 8 8 10 10 10 10 10 9 9 9 8 9 8 8 6 8 9 9 9 9 10 8
5 5 5 6 6 7 8 8 8 9 10 10 10 11 11 11 11 11 11 11 11 11 10 9 8 8 9 11 9 9 8 7 5 7 6 7 6 6 7 8 8 9 9 9 9 10 10 10 9 8 7 8 9 9 9 9 10 10 11 11 10 10
1 3 6 7 7 8 8 7 8 8 9 10 10 12 11 10 10 10 10 10 10 10 10 11 9 10 10 11 10 10 9 8 6 5 7 7 6 7 6 7 7 7 9 8 9 9 9 10 9 9 8 9 9 9 11 10 10 10 11 11 11 10
5 5 5 6 7 6 7 8 8 9 9 9 10 10 10 10 10 9 9 9 11 11 11 12 11 10 11 10 8 11 9 8 7 7 9 8 7 7 7 7 6 7 8 8 9 10 10 10 10 10 9 8 8 9 10 10 10 10 11 11 11 11
4 5 5 5 6 6 7 8 8 8 8 9 9 9 9 10 9 9 9 10 11 11 13 12 11 11 10 10 9 10 10 9 9 9 8 9 8 8 8 8 7 7 10 9 9 9 9 9 9 10 10 9 8 8 9 9 10 10 10 10 10 11
8 7 6 7 7 8 7 8 8 7 8 10 10 8 9 10 9 9 10 11 11 11 12 12 11 10 11 10 10 10 9 10 9 10 9 8 9 9 7 6 7 8 9 9 9 10 9 9 9 9 9 9 9 9 10 10 10 10 10 10 10 9
6 8 9 8 8 7 7 6 5 7 8 10 9 9 9 8 10 10 10 10 11 11 11 11 10 9 10 9 10 11 10 9 9 10 9 8 8 6 6 7 8 8 8 9 9 8 8 8 8 8 8 9 10 10 10 11 11 10 9 9 8 8
12 13 11 9 8 9 9 7 6 7 8 9 8 9 10 9 10 10 10 11 11 11 9 8 8 8 10 10 10 11 11 9 9 9 8 8 8 6 7 7 7 8 8 7 7 7 7 8 8 8 8 9 10 9 10 11 11 11 10 9 8 7
15 13 12 9 9 10 8 7 8 9 10 10 9 9 9 9 10 10 10 10 10 8 8 8 8 8 8 11 10 11 11 9 9 9 8 9 8 7 7 7 7 7 7 7 7 7 6 6 5 8 13 12 10 10 8 8 10 11 11 10 9 7
14 14 15 15 15 14 9 7 7 8 10 10 9 9 9 9 9 9 9 10 8 8 8 8 8 8 9 10 10 10 10 9 9 9 9 8 8 8 7 7 7 7 6 7 7 7 6 6 6 11 13 15 13 11 11 12 11 10 10 10 10 8
14 15 17 18 15 12 10 9 9 9 11 9 9 8 8 8 9 9 9 8 8 8 9 8 8 9 9 9 10 10 6 7 7 7 6 6 6 7 7 7 8 7 7 6 6 7 7 6 9 8 12 15 16 12 9 9 8 9 9 10 10 9
18 20 19 15 12 11 11 11 9 12 12 8 8 7 8 9 9 8 8 8 8 9 9 8 9 9 9 9 9 7 7 7 7 7 7 7 6 6 7 7 8 8 7 7 8 8 6 6 10 10 11 11 12 12 11 7 10 9 8 9 9 10
17 16 14 11 10 10 9 9 10 8 6 6 7 9 8 8 8 8 8 8 8 8 8 8 7 8 9 8 7 7 8 8 8 6 5 6 6 7 7 5 7 6 7 8 7 7 6 6 10 12 11 10 9 12 9 8 9 7 9 10 10 9
18 15 4 7 8 5 5 4 4 4 5 6 7 7 8 7 7 7 7 8 8 8 8 8 9 9 7 8 8 8 9 10 7 8 6 7 7 8 9 9 8 6 5 5 5 5 5 5 11 13 12 10 11 11 9 6 6 5 6 7 9 10
18 17 14 3 5 5 4 5 5 5 6 6 7 7 7 7 7 7 7 7 7 8 7 8 6 6 7 9 8 9 9 9 9 8 7 6 5 3 3 2 4 5 6 5 6 5 5 4 14 12 14 14 14 11 5 5 6 6 6 7 8 8
12 5 2 4 3 5 4 4 5 6 6 6 5 6 6 6 6 6 6 6 6 7 6 6 8 5 6 8 8 8 8 8 8 6 4 7 5 5 6 5 5 5 5 6 6 6 5 4 11 14 15 15 15 9 4 5 5 7 7 7 8 7
1 3 3 5 5 4 5 6 7 7 6 6 5 6 5 5 6 6 6 6 6 6 6 6 7 6 6 8 9 8 7 7 5 5 6 6 7 6 6 5 5 4 5 6 6 6 6 5 9 14 16 16 16 9 7 6 7 7 8 6 5 5
2 3 4 4 6 6 6 7 8 7 6 6 6 6 6 6 6 7 7 7 6 6 6 6 6 7 7 8 8 8 8 7 6 5 6 5 5 6 5 5 5 5 5 5 5 7 7 6 10 15 17 18 17 11 7 7 7 8 6 6 6 4
3 2 4 5 5 7 7 7 6 5 7 6 6 6 6 6 6 6 6 6 6 6 6 5 7 7 8 8 7 6 7 6 5 7 6 6 4 4 4 4 4 6 3 4 4 5 5 6 6 10 16 16 16 13 8 6 7 7 7 6 6 6
2 3 2 2 4 5 5 5 7 5 6 6 5 4 5 5 5 6 6 6 6 4 4 5 6 8 6 7 8 7 6 5 7 7 8 7 6 6 5 6 5 5 5 4 4 4 4 6 7 9 14 15 15 13 10 6 6 6 6 6 6 5
2 3 4 4 4 4 4 4 5 6 6 5 4 5 5 6 6 6 6 4 4 4 5 5 5 6 6 7 8 7 6 5 7 7 7 5 6 8 7 6 5 4 4 3 4 4 4 4 8 8 13 15 15 14 11 6 5 6 7 6 5 4
3 3 4 3 3 3 4 5 5 4 4 4 5 5 6 6 6 6 5 5 6 6 7 6 7 6 5 6 6 8 7 7 6 7 6 7 7 7 7 6 5 5 4 4 3 3 3 3 4 9 9 14 15 15 10 9 7 9 5 4 4 4
5 5 4 4 4 4 3 5 6 5 5 5 5 5 5 5 4 5 7 7 8 8 7 7 7 7 6 7 7 7 8 7 7 7 5 6 7 6 6 4 4 4 5 4 4 4 4 3 4 5 6 7 10 10 10 9 9 8 4 3 2 2
7 6 6 5 5 5 4 4 8 7 7 5 5 4 5 6 7 8 8 8 7 7 6 6 6 6 6 6 7 7 6 7 8 6 5 6 6 6 6 6 5 5 5 5 5 4 4 3 3 3 4 5 4 8 9 9 8 7 7 3 2 2
4 5 6 6 5 5 4 3 6 10 6 7 6 6 7 8 9 9 9 7 7 7 7 8 7 6 7 6 5 6 6 7 6 6 6 5 5 5 5 6 6 6 5 5 5 5 4 3 3 3 3 4 3 3 6 6 6 3 3 8 9 13
4 5 4 6 4 4 4 5 4 5 6 6 6 8 9 9 10 10 8 8 7 7 7 7 6 6 6 5 6 6 6 5 5 5 5 5 5 5 5 5 6 6 5 5 5 5 4 4 3 3 3 3 3 3 3 3 4 10 10 7 5 7
3 4 4 4 4 3 3 4 5 5 6 7 8 8 9 10 9 8 8 9 8 6 6 6 8 8 6 5 5 6 5 4 4 5 5 5 5 6 6 6 6 6 6 6 6 5 5 4 4 4 4 5 4 4 4 3 4 3 3 4 4 4
5 5 5 4 3 4 5 6 5 5 6 8 8 8 10 9 10 10 10 8 7 7 6 7 6 6 6 6 6 6 4 3 4 4 4 5 2 2 4 5 4 3 4 4 5 5 5 4 4 3 5 6 7 6 5 4 4 3 3 7 10 7
6 8 7 4 4 5 6 6 5 6 7 7 7 8 10 9 9 9 8 7 7 7 7 6 6 6 7 7 6 5 7 13 13 7 4 3 7 11 11 6 2 3 4 5 3 2 3 3 4 11 14 13 12 11 11 9 10 9 7 11 13 7
6 7 7 4 5 7 8 8 6 6 5 6 6 8 10 11 8 7 7 7 7 7 7 6 7 6 6 6 6 5 7 7 10 15 14 11 10 10 11 11 12 11 10 8 5 7 14 14 15 15 14 14 13 12 13 13 12 12 12 12 7 4
4 4 4 3 5 5 5 6 5 4 3 4 5 7 8 9 9 7 7 7 7 8 7 6 6 7 7 6 5 6 6 7 9 9 13 13 13 14 14 13 14 14 14 14 12 9 8 12 15 16 15 15 15 14 13 13 12 11 11 10 8 4
3 4 4 4 5 5 6 7 4 3 2 2 4 5 7 8 8 8 7 7 8 6 8 7 6 6 5 7 8 6 5 7 7 9 9 10 14 16 15 15 15 16 15 14 13 13 12 12 14 16 16 15 14 13 11 11 10 10 9 9 5 4
4 3 4 4 4 4 5 7 4 3 3 1 2 3 4 5 5 6 7 9 9 8 5 5 7 7 6 6 7 7 6 5 6 7 8 9 8 9 12 14 15 14 15 14 14 15 16 15 15 15 14 14 14 15 16 14 10 10 8 5 3 2
5 4 4 5 4 5 6 5 3 3 3 2 2 4 4 4 5 5 7 9 8 5 7 7 6 6 7 7 7 6 6 6 5 7 7 7 8 8 7 6 7 10 12 11 11 14 15 15 16 16 16 16 15 14 13 11 6 4 3 2 1 1
3 5 5 4 4 5 6 4 3 3 3 2 2 4 6 6 6 6 4 5 6 6 6 6 6 6 7 7 5 4 5 6 6 5 6 5 5 6 7 6 4 5 10 17 16 17 16 17 15 14 13 11 11 10 10 5 4 3 3 3 2 3
Wind_Direction
183 178 176 179 184 187 188 187 188 190 196 196 199 200 201 199 200 200 203 206 209 213 214 217 221 224 210 197 193 182 176 178 181 188 192 177 178 162 155 164 166 174 175 180 167 179 184 181 183 181 181 177 183 178 172 154 160 161 156 145 140 142
174 169 168 175 181 184 189 187 188 195 197 198 203 205 202 202 200 196 202 204 206 208 215 219 223 215 209 197 191 192 200 204 193 182 185 180 159 163 155 162 176 176 178 181 182 184 177 177 178 177 178 180 187 178 175 168 162 160 153 142 135 140
148 149 157 160 166 179 183 190 195 197 198 202 202 202 202 203 201 197 201 200 208 208 209 216 214 205 201 190 188 189 199 200 194 194 182 149 161 151 167 176 180 181 182 178 183 183 180 179 178 177 177 186 183 181 171 161 165 159 152 141 139 142
150 149 146 145 164 185 190 193 195 200 203 203 200 203 208 203 201 196 192 198 206 211 214 215 215 203 186 203 202 202 198 197 199 192 160 164 155 169 176 185 181 179 181 183 183 182 183 182 182 177 177 188 180 176 164 165 165 160 150 148 151 151
160 160 169 179 192 194 191 193 201 204 204 201 201 201 207 206 203 197 194 195 200 204 206 209 199 187 195 198 203 201 202 201 171 167 168 173 171 173 188 186 184 179 179 184 187 183 183 183 180 180 180 189 182 172 166 168 168 163 157 157 157 151
166 159 176 187 196 200 195 198 204 207 208 205 201 203 202 201 203 198 196 197 200 201 205 207 200 190 192 204 206 212 205 195 166 165 182 185 170 181 191 189 176 172 184 187 189 186 184 181 180 180 187 191 186 177 171 170 169 165 163 161 155 151
228 219 200 197 199 194 195 201 205 208 210 206 205 204 198 199 200 196 196 196 199 203 207 208 202 189 189 193 195 206 203 197 186 179 188 183 181 187 182 188 168 174 183 191 192 187 187 187 180 179 184 191 187 180 173 171 167 165 163 158 155 152
226 239 223 210 207 200 200 202 206 209 217 215 207 199 192 198 198 195 190 193 198 204 206 206 200 192 186 185 181 189 194 196 197 189 190 188 189 189 191 182 175 177 188 195 197 193 189 188 187 184 184 186 182 175 175 169 164 161 156 154 154 153
238 231 223 219 209 204 201 201 196 205 212 218 209 200 196 195 192 196 196 196 200 202 204 203 201 194 192 186 186 187 190 196 192 191 187 182 190 189 175 165 171 185 191 197 198 197 188 188 194 190 184 181 179 176 171 163 158 156 153 154 151 147
258 247 230 217 214 205 208 196 189 209 212 215 204 199 200 196 189 195 200 198 201 205 204 202 200 194 189 186 184 188 195 193 182 179 181 178 184 174 172 173 179 187 194 198 197 196 187 189 195 196 187 178 175 175 173 164 156 149 141 141 144 145
243 239 230 213 202 210 209 185 185 208 224 217 198 195 205 194 188 196 199 201 205 207 201 198 197 194 189 185 182 187 192 187 182 179 179 183 188 181 185 183 186 186 196 202 197 191 188 194 197 196 187 178 176 176 168 160 152 149 144 142 138 131
232 225 228 211 208 220 210 188 185 199 213 214 197 196 204 194 194 193 199 205 207 202 196 194 187 186 176 181 190 190 191 185 179 177 180 182 182 178 175 174 177 187 190 190 193 194 190 198 199 201 192 182 172 168 162 151 154 154 149 142 132 116
246 240 235 230 217 210 203 196 184 188 211 214 194 196 198 196 193 193 198 205 199 194 196 197 184 176 182 185 185 190 191 172 165 175 179 179 177 166 162 168 177 186 186 188 189 192 196 200 202 200 192 188 176 166 165 162 155 148 144 144 139 133
255 247 243 240 231 209 196 196 191 191 215 205 192 188 181 195 198 193 200 198 190 191 194 194 179 180 182 178 185 188 182 167 171 179 175 173 173 170 153 168 183 183 188 191 194 202 202 207 205 183 184 184 182 173 157 152 149 152 152 149 145 141
258 258 252 242 221 213 206 205 197 209 211 192 184 163 181 191 193 192 198 198 189 193 192 191 184 181 177 175 168 173 170 168 167 172 168 174 175 163 173 170 179 183 185 190 194 201 198 208 187 171 174 171 165 161 162 159 153 149 151 150 148 143
255 255 251 231 214 211 205 190 201 207 187 172 161 171 181 183 188 190 192 193 191 188 187 185 173 176 171 164 165 165 168 168 174 162 156 163 158 169 173 168 180 176 182 188 192 192 193 201 182 170 162 158 157 162 156 152 151 150 148 147 145 140
261 256 189 202 195 162 134 148 157 142 147 164 167 172 171 181 180 188 190 191 190 185 182 176 169 170 164 164 161 161 167 170 151 165 163 167 170 174 179 181 182 182 176 173 177 188 189 190 164 163 158 145 152 154 151 147 143 131 126 127 139 147
260 254 245 180 131 143 144 155 147 159 174 163 168 164 171 172 179 185 186 189 189 187 181 169 168 162 150 152 153 160 164 161 161 136 153 159 157 139 118 129 159 168 169 170 174 182 187 166 164 160 157 166 158 146 131 138 134 127 123 123 125 132
271 289 52 102 118 116 144 136 145 166 157 159 161 153 160 164 174 184 183 182 183 180 174 155 157 158 142 152 154 162 163 161 159 149 127 149 148 146 165 170 168 168 167 164 170 176 177 151 166 160 161 157 149 138 126 129 128 129 134 137 141 137
72 87 107 115 134 141 138 151 160 161 150 147 144 145 158 165 179 179 177 180 176 169 169 161 161 155 149 152 160 161 160 157 144 136 150 147 159 164 162 154 149 152 165 167 173 177 172 158 162 161 157 149 150 150 148 147 140 139 132 130 126 125
148 125 134 155 161 154 151 155 153 146 143 143 148 155 162 175 178 175 173 173 168 165 160 147 151 151 152 158 161 159 154 156 149 140 144 148 134 143 137 148 147 149 157 168 168 167 165 156 165 165 161 157 159 150 147 144 142 142 141 135 139 141
102 151 171 188 167 132 151 147 145 139 141 146 146 159 172 173 170 165 163 160 157 152 142 144 150 151 153 155 149 147 144 134 121 134 132 136 130 121 134 141 126 150 120 144 148 156 156 151 160 169 166 159 153 150 149 148 142 146 145 147 149 155
197 214 178 128 112 128 140 143 127 137 133 133 144 164 160 154 147 148 148 143 138 130 131 135 146 143 140 142 140 136 131 130 134 135 141 142 140 139 134 144 129 130 112 115 122 138 145 153 151 162 166 156 153 148 144 151 153 144 140 142 146 163
117 85 76 79 116 127 137 131 128 124 126 134 140 141 133 131 135 134 128 124 115 111 110 110 110 118 122 123 127 127 116 116 124 135 136 124 132 142 140 138 137 131 132 132 134 141 145 155 155 156 165 157 152 155 148 145 140 135 139 142 151 155
125 111 101 101 115 119 122 121 116 104 112 113 115 112 117 120 119 112 106 103 105 108 107 109 112 111 112 119 124 123 117 121 121 128 133 134 134 131 138 144 139 126 123 114 94 71 95 120 140 154 161 163 160 159 145 125 121 136 135 144 145 142
125 117 108 102 93 88 90 115 111 112 107 104 102 99 98 101 97 94 99 95 99 104 104 109 111 111 116 121 118 118 125 131 129 130 128 135 138 132 129 129 122 117 109 109 98 88 69 74 86 67 90 131 140 150 152 150 146 151 133 128 113 105
139 128 117 105 97 100 97 116 124 121 114 110 111 111 103 100 101 101 96 99 100 97 100 101 103 108 111 114 122 122 118 120 131 128 126 132 130 135 133 134 131 131 135 130 137 133 126 112 88 94 100 109 142 171 178 183 177 162 147 123 138 101
111 125 121 113 108 106 107 115 136 132 129 127 124 117 116 115 111 106 108 105 100 105 107 103 98 101 108 109 111 111 121 130 135 129 135 131 127 128 129 138 141 141 141 142 141 137 126 108 106 105 105 140 103 153 182 177 185 186 124 85 91 96
127 129 117 116 113 103 106 109 105 111 120 122 119 121 122 119 117 114 114 113 108 111 114 113 116 113 111 110 107 113 122 128 121 124 131 134 135 137 137 137 141 140 145 151 148 135 128 139 139 136 142 133 137 143 151 167 113 91 101 111 113 99
69 96 92 92 92 94 96 98 102 111 111 113 118 122 120 119 121 115 111 118 120 119 120 113 112 115 116 110 110 116 118 114 124 130 136 149 150 150 150 152 156 156 159 154 145 143 143 152 158 157 153 147 138 126 117 108 101 113 112 108 103 97
101 98 84 77 64 70 66 74 87 104 103 115 125 129 126 123 120 118 118 119 119 113 114 119 123 117 112 109 87 66 65 120 135 113 73 36 50 126 152 152 143 145 144 131 137 143 153 156 163 161 129 133 136 125 118 121 123 120 114 118 118 108
103 116 110 106 100 97 97 108 110 109 123 125 130 132 127 122 116 122 120 121 119 124 125 123 115 112 114 111 105 97 74 55 57 62 94 89 65 61 54 67 114 122 123 108 79 90 143 156 128 129 130 134 130 126 127 129 132 133 130 137 136 135
109 107 121 131 122 115 120 120 122 119 125 132 136 136 134 136 131 126 131 130 136 137 130 123 124 126 117 118 116 104 102 93 69 70 75 82 80 82 85 88 88 89 97 114 112 87 95 108 122 127 124 126 126 127 126 127 129 130 135 140 136 143
150 146 123 86 75 76 53 87 84 89 98 117 128 137 138 143 140 137 143 141 134 132 129 121 120 124 123 118 118 117 119 111 107 84 75 81 85 88 90 93 96 100 103 105 108 110 101 110 117 120 123 127 128 128 129 130 133 139 145 151 143 129
110 109 116 122 128 126 117 106 94 52 54 87 130 144 148 149 148 143 141 137 137 130 131 126 128 128 127 134 132 129 125 126 125 121 112 86 84 86 88 90 95 100 104 106 107 111 120 124 126 126 128 130 133 135 140 144 144 148 147 148 150 138
121 117 122 119 118 117 119 111 97 50 24 10 114 143 145 145 142 146 150 148 146 136 125 125 136 134 132 123 126 128 124 117 122 126 125 125 119 95 85 86 94 101 106 110 117 121 124 126 129 131 134 136 134 131 122 112 107 110 123 147 152 148
132 131 126 126 125 122 103 91 44 10 353 341 59 124 118 111 108 108 105 120 130 86 124 131 128 128 129 131 132 130 126 121 121 127 131 137 130 125 122 118 110 110 111 117 121 124 124 126 126 127 128 125 125 128 132 126 123 129 96 89 75 97
123 123 122 125 125 101 86 75 21 6 341 341 65 115 118 117 115 117 104 127 131 128 127 129 132 131 133 134 129 115 107 114 119 125 123 114 98 106 112 98 77 88 113 112 110 109 109 106 104 106 108 113 119 130 147 148 166 148 144 124 114 103